Starlink 32409

operational
NORAD ID: 61591 Int'l Des: 2024-187 Owner: SPXS Country: US Constellation: starlink
LEOCIRCULAR

About Starlink 32409

Description loading...

Live Position

Loading 3D Globe...

Upcoming Passes

Altitude History

Altitude vs Time

uPlot chart will show altitude changes over time

Two-Line Element Set

1 61591U 24187T 25308.15118992 .00000673 00000-0 26798-4 0 9990
2 61591 53.1608 275.3184 0001328 96.4099 263.7057 15.39624742 60041
Epoch: Nov 4, 2025 • Age: 20 hours

Current Status

Altitude 459.7 km
Velocity 7.64 km/s
Sub-Earth Point -36.84°S, 91.27°E
Launch Date Oct 18, 2024
Age 1 years
Type internet

Technical Details

Classification Payload
Mass 730.00 kg
Dry Mass 700.00 kg
Total Mass 730.00 kg
Length 0.30 m
Diameter 4.10 m
Span 29.00 m
Shape Box + pan
Manufacturer SPXS
Bus Type Starlink V2M
Phase Status In Orbit
Owner/State SPXS/US

Large Constellations

Loading constellations...